Location: Saluda
(35.2377°N, 82.3468°W)
Time: 05:19:39
(UTC+00:00)

Vanguard 2 - Pass Details

Date: 06 October 2022
Orbit: 553 x 2933 km, 32.9° (Epoch: 26 November)

Event Time Altitude Azimuth Distance (km) Brightness Sun altitude
Rises 17:40:42 0° 248° (WSW) 4,155 11.6 49.1°
Reaches altitude 10° 17:43:05 10° 245° (WSW) 3,439 11.3 49.0°
Maximum altitude 17:52:16 71° 163° (SSE) 2,029 11.1 48.6°
Drops below altitude 10° 18:07:25 10° 84° (E) 5,411 11.8 47.8°
Sets 18:12:10 0° 83° (E) 6,623 12.1 47.4°
